Year,Month,Day,Hour,Minute,Value (Times are PST for temperature in C)
2010,06,26,00,00,10.20
2010,06,26,00,01,10.20
2010,06,26,00,02,10.20
2010,06,26,00,03,10.20
2010,06,26,00,04,10.20
2010,06,26,00,05,10.20
2010,06,26,00,06,10.10
2010,06,26,00,07,10.10
2010,06,26,00,08,10.10
2010,06,26,00,09,10.10
2010,06,26,00,10,10.10
2010,06,26,00,11,10.00
2010,06,26,00,12,10.00
2010,06,26,00,13,10.00
2010,06,26,00,14,9.90
2010,06,26,00,15,9.90
2010,06,26,00,16,9.90
2010,06,26,00,17,9.90
2010,06,26,00,18,9.90
2010,06,26,00,19,9.90
2010,06,26,00,20,9.90
2010,06,26,00,21,9.90
2010,06,26,00,22,9.90
2010,06,26,00,23,9.90
2010,06,26,00,24,9.90
2010,06,26,00,25,9.80
2010,06,26,00,26,9.80
2010,06,26,00,27,9.80
2010,06,26,00,28,9.80
2010,06,26,00,29,9.80
2010,06,26,00,30,9.80
2010,06,26,00,31,9.80
2010,06,26,00,32,9.70
2010,06,26,00,33,9.70
2010,06,26,00,34,9.70
2010,06,26,00,35,9.70
2010,06,26,00,36,9.70
2010,06,26,00,37,9.70
2010,06,26,00,38,9.70
2010,06,26,00,39,9.70
2010,06,26,00,40,9.70
2010,06,26,00,41,9.70
2010,06,26,00,42,9.70
2010,06,26,00,43,9.70
2010,06,26,00,44,9.70
2010,06,26,00,45,9.70
2010,06,26,00,46,9.60
2010,06,26,00,47,9.60
2010,06,26,00,48,9.60
2010,06,26,00,49,9.60
2010,06,26,00,50,9.60
2010,06,26,00,51,9.60
2010,06,26,00,52,9.60
2010,06,26,00,53,9.60
2010,06,26,00,54,9.60
2010,06,26,00,55,9.60
2010,06,26,00,56,9.60
2010,06,26,00,57,9.60
2010,06,26,00,58,9.50
2010,06,26,00,59,9.50
2010,06,26,01,00,9.50
2010,06,26,01,01,9.50
2010,06,26,01,02,9.50
2010,06,26,01,03,9.50
2010,06,26,01,04,9.50
2010,06,26,01,05,9.50
2010,06,26,01,06,9.50
2010,06,26,01,07,9.50
2010,06,26,01,08,9.60
2010,06,26,01,09,9.50
2010,06,26,01,10,9.50
2010,06,26,01,11,9.50
2010,06,26,01,12,9.50
2010,06,26,01,13,9.40
2010,06,26,01,14,9.40
2010,06,26,01,15,9.40
2010,06,26,01,16,9.40
2010,06,26,01,17,9.40
2010,06,26,01,18,9.30
2010,06,26,01,19,9.30
2010,06,26,01,20,9.30
2010,06,26,01,21,9.20
2010,06,26,01,22,9.20
2010,06,26,01,23,9.20
2010,06,26,01,24,9.20
2010,06,26,01,25,9.20
2010,06,26,01,26,9.10
2010,06,26,01,27,9.10
2010,06,26,01,28,9.10
2010,06,26,01,29,9.10
2010,06,26,01,30,9.10
2010,06,26,01,31,9.10
2010,06,26,01,32,9.10
2010,06,26,01,33,9.00
2010,06,26,01,34,9.00
2010,06,26,01,35,9.00
2010,06,26,01,36,9.00
2010,06,26,01,37,9.00
2010,06,26,01,38,9.00
2010,06,26,01,39,9.10
2010,06,26,01,40,9.10
2010,06,26,01,41,9.10
2010,06,26,01,42,9.10
2010,06,26,01,43,9.10
2010,06,26,01,44,9.20
2010,06,26,01,45,9.20
2010,06,26,01,46,9.20
2010,06,26,01,47,9.20
2010,06,26,01,48,9.10
2010,06,26,01,49,9.10
2010,06,26,01,50,9.10
2010,06,26,01,51,9.10
2010,06,26,01,52,9.00
2010,06,26,01,53,9.00
2010,06,26,01,54,9.00
2010,06,26,01,55,9.00
2010,06,26,01,56,8.90
2010,06,26,01,57,8.90
2010,06,26,01,58,8.90
2010,06,26,01,59,8.90
2010,06,26,02,00,8.90
2010,06,26,02,01,8.80
2010,06,26,02,02,8.80
2010,06,26,02,03,8.80
2010,06,26,02,04,8.80
2010,06,26,02,05,8.80
2010,06,26,02,06,8.70
2010,06,26,02,07,8.70
2010,06,26,02,08,8.70
2010,06,26,02,09,8.70
2010,06,26,02,10,8.70
2010,06,26,02,11,8.70
2010,06,26,02,12,8.60
2010,06,26,02,13,8.60
2010,06,26,02,14,8.60
2010,06,26,02,15,8.60
2010,06,26,02,16,8.60
2010,06,26,02,17,8.60
2010,06,26,02,18,8.60
2010,06,26,02,19,8.60
2010,06,26,02,20,8.60
2010,06,26,02,21,8.60
2010,06,26,02,22,8.60
2010,06,26,02,23,8.50
2010,06,26,02,24,8.60
2010,06,26,02,25,8.60
2010,06,26,02,26,8.60
2010,06,26,02,27,8.60
2010,06,26,02,28,8.60
2010,06,26,02,29,8.60
2010,06,26,02,30,8.60
2010,06,26,02,31,8.60
2010,06,26,02,32,8.60
2010,06,26,02,33,8.60
2010,06,26,02,34,8.60
2010,06,26,02,35,8.60
2010,06,26,02,36,8.60
2010,06,26,02,37,8.60
2010,06,26,02,38,8.60
2010,06,26,02,39,8.60
2010,06,26,02,40,8.60
2010,06,26,02,41,8.60
2010,06,26,02,42,8.60
2010,06,26,02,43,8.60
2010,06,26,02,44,8.60
2010,06,26,02,45,8.60
2010,06,26,02,46,8.70
2010,06,26,02,47,8.70
2010,06,26,02,48,8.70
2010,06,26,02,49,8.60
2010,06,26,02,50,8.60
2010,06,26,02,51,8.60
2010,06,26,02,52,8.60
2010,06,26,02,53,8.60
2010,06,26,02,54,8.60
2010,06,26,02,55,8.60
2010,06,26,02,56,8.60
2010,06,26,02,57,8.60
2010,06,26,02,58,8.60
2010,06,26,02,59,8.60
2010,06,26,03,00,8.60
2010,06,26,03,01,8.60
2010,06,26,03,02,8.60
2010,06,26,03,03,8.60
2010,06,26,03,04,8.60
2010,06,26,03,05,8.60
2010,06,26,03,06,8.60
2010,06,26,03,07,8.60
2010,06,26,03,08,8.60
2010,06,26,03,09,8.60
2010,06,26,03,10,8.60
2010,06,26,03,11,8.60
2010,06,26,03,12,8.60
2010,06,26,03,13,8.60
2010,06,26,03,14,8.60
2010,06,26,03,15,8.60
2010,06,26,03,16,8.60
2010,06,26,03,17,8.50
2010,06,26,03,18,8.50
2010,06,26,03,19,8.50
2010,06,26,03,20,8.50
2010,06,26,03,21,8.40
2010,06,26,03,22,8.40
2010,06,26,03,23,8.40
2010,06,26,03,24,8.40
2010,06,26,03,25,8.40
2010,06,26,03,26,8.30
2010,06,26,03,27,8.30
2010,06,26,03,28,8.30
2010,06,26,03,29,8.30
2010,06,26,03,30,8.30
2010,06,26,03,31,8.30
2010,06,26,03,32,8.30
2010,06,26,03,33,8.30
2010,06,26,03,34,8.30
2010,06,26,03,35,8.30
2010,06,26,03,36,8.30
2010,06,26,03,37,8.30
2010,06,26,03,38,8.30
2010,06,26,03,39,8.30
2010,06,26,03,40,8.30
2010,06,26,03,41,8.20
2010,06,26,03,42,8.20
2010,06,26,03,43,8.20
2010,06,26,03,44,8.20
2010,06,26,03,45,8.20
2010,06,26,03,46,8.20
2010,06,26,03,47,8.20
2010,06,26,03,48,8.20
2010,06,26,03,49,8.20
2010,06,26,03,50,8.30
2010,06,26,03,51,8.30
2010,06,26,03,52,8.30
2010,06,26,03,53,8.30
2010,06,26,03,54,8.30
2010,06,26,03,55,8.30
2010,06,26,03,56,8.30
2010,06,26,03,57,8.30
2010,06,26,03,58,8.30
2010,06,26,03,59,8.30
2010,06,26,04,00,8.30
2010,06,26,04,01,8.30
2010,06,26,04,02,8.30
2010,06,26,04,03,8.30
2010,06,26,04,04,8.30
2010,06,26,04,05,8.30
2010,06,26,04,06,8.30
2010,06,26,04,07,8.30
2010,06,26,04,08,8.20
2010,06,26,04,09,8.30
2010,06,26,04,10,8.30
2010,06,26,04,11,8.30
2010,06,26,04,12,8.30
2010,06,26,04,13,8.30
2010,06,26,04,14,8.30
2010,06,26,04,15,8.30
2010,06,26,04,16,8.20
2010,06,26,04,17,8.20
2010,06,26,04,18,8.20
2010,06,26,04,19,8.20
2010,06,26,04,20,8.20
2010,06,26,04,21,8.20
2010,06,26,04,22,8.20
2010,06,26,04,23,8.20
2010,06,26,04,24,8.20
2010,06,26,04,25,8.20
2010,06,26,04,26,8.20
2010,06,26,04,27,8.10
2010,06,26,04,28,8.10
2010,06,26,04,29,8.10
2010,06,26,04,30,8.10
2010,06,26,04,31,8.10
2010,06,26,04,32,8.10
2010,06,26,04,33,8.10
2010,06,26,04,34,8.10
2010,06,26,04,35,8.10
2010,06,26,04,36,8.10
2010,06,26,04,37,8.10
2010,06,26,04,38,8.10
2010,06,26,04,39,8.10
2010,06,26,04,40,8.10
2010,06,26,04,41,8.10
2010,06,26,04,42,8.10
2010,06,26,04,43,8.10
2010,06,26,04,44,8.10
2010,06,26,04,45,8.10
2010,06,26,04,46,8.10
2010,06,26,04,47,8.10
2010,06,26,04,48,8.10
2010,06,26,04,49,8.10
2010,06,26,04,50,8.10
2010,06,26,04,51,8.10
2010,06,26,04,52,8.10
2010,06,26,04,53,8.10
2010,06,26,04,54,8.10
2010,06,26,04,55,8.10
2010,06,26,04,56,8.20
2010,06,26,04,57,8.20
2010,06,26,04,58,8.20
2010,06,26,04,59,8.20
2010,06,26,05,00,8.20
2010,06,26,05,01,8.20
2010,06,26,05,02,8.20
2010,06,26,05,03,8.20
2010,06,26,05,04,8.20
2010,06,26,05,05,8.30
2010,06,26,05,06,8.30
2010,06,26,05,07,8.30
2010,06,26,05,08,8.30
2010,06,26,05,09,8.20
2010,06,26,05,10,8.20
2010,06,26,05,11,8.20
2010,06,26,05,12,8.20
2010,06,26,05,13,8.20
2010,06,26,05,14,8.20
2010,06,26,05,15,8.10
2010,06,26,05,16,8.10
2010,06,26,05,17,8.10
2010,06,26,05,18,8.10
2010,06,26,05,19,8.10
2010,06,26,05,20,8.10
2010,06,26,05,21,8.10
2010,06,26,05,22,8.20
2010,06,26,05,23,8.20
2010,06,26,05,24,8.20
2010,06,26,05,25,8.20
2010,06,26,05,26,8.20
2010,06,26,05,27,8.20
2010,06,26,05,28,8.20
2010,06,26,05,29,8.10
2010,06,26,05,30,8.10
2010,06,26,05,31,8.10
2010,06,26,05,32,8.10
2010,06,26,05,33,8.10
2010,06,26,05,34,8.20
2010,06,26,05,35,8.20
2010,06,26,05,36,8.20
2010,06,26,05,37,8.20
2010,06,26,05,38,8.20
2010,06,26,05,39,8.20
2010,06,26,05,40,8.20
2010,06,26,05,41,8.20
2010,06,26,05,42,8.20
2010,06,26,05,43,8.20
2010,06,26,05,44,8.20
2010,06,26,05,45,8.20
2010,06,26,05,46,8.20
2010,06,26,05,47,8.20
2010,06,26,05,48,8.30
2010,06,26,05,49,8.30
2010,06,26,05,50,8.30
2010,06,26,05,51,8.30
2010,06,26,05,52,8.30
2010,06,26,05,53,8.30
2010,06,26,05,54,8.30
2010,06,26,05,55,8.40
2010,06,26,05,56,8.40
2010,06,26,05,57,8.40
2010,06,26,05,58,8.40
2010,06,26,05,59,8.40
2010,06,26,06,00,8.40
2010,06,26,06,01,8.40
2010,06,26,06,02,8.40
2010,06,26,06,03,8.40
2010,06,26,06,04,8.40
2010,06,26,06,05,8.50
2010,06,26,06,06,8.50
2010,06,26,06,07,8.50
2010,06,26,06,08,8.50
2010,06,26,06,09,8.50
2010,06,26,06,10,8.50
2010,06,26,06,11,8.50
2010,06,26,06,12,8.50
2010,06,26,06,13,8.50
2010,06,26,06,14,8.50
2010,06,26,06,15,8.50
2010,06,26,06,16,8.60
2010,06,26,06,17,8.60
2010,06,26,06,18,8.60
2010,06,26,06,19,8.70
2010,06,26,06,20,8.70
2010,06,26,06,21,8.80
2010,06,26,06,22,8.80
2010,06,26,06,23,8.90
2010,06,26,06,24,8.90
2010,06,26,06,25,8.90
2010,06,26,06,26,9.00
2010,06,26,06,27,9.10
2010,06,26,06,28,9.10
2010,06,26,06,29,9.20
2010,06,26,06,30,9.20
2010,06,26,06,31,9.30
2010,06,26,06,32,9.30
2010,06,26,06,33,9.30
2010,06,26,06,34,9.30
2010,06,26,06,35,9.40
2010,06,26,06,36,9.40
2010,06,26,06,37,9.40
2010,06,26,06,38,9.50
2010,06,26,06,39,9.50
2010,06,26,06,40,9.60
2010,06,26,06,41,9.60
2010,06,26,06,42,9.60
2010,06,26,06,43,9.60
2010,06,26,06,44,9.60
2010,06,26,06,45,9.70
2010,06,26,06,46,9.70
2010,06,26,06,47,9.70
2010,06,26,06,48,9.70
2010,06,26,06,49,9.70
2010,06,26,06,50,9.70
2010,06,26,06,51,9.70
2010,06,26,06,52,9.80
2010,06,26,06,53,9.80
2010,06,26,06,54,9.80
2010,06,26,06,55,9.90
2010,06,26,06,56,9.90
2010,06,26,06,57,9.90
2010,06,26,06,58,9.90
2010,06,26,06,59,10.00
2010,06,26,07,00,10.10
2010,06,26,07,01,10.10
2010,06,26,07,02,10.10
2010,06,26,07,03,10.20
2010,06,26,07,04,10.20
2010,06,26,07,05,10.30
2010,06,26,07,06,10.30
2010,06,26,07,07,10.40
2010,06,26,07,08,10.40
2010,06,26,07,09,10.50
2010,06,26,07,10,10.50
2010,06,26,07,11,10.60
2010,06,26,07,12,10.60
2010,06,26,07,13,10.70
2010,06,26,07,14,10.70
2010,06,26,07,15,10.80
2010,06,26,07,16,10.90
2010,06,26,07,17,10.90
2010,06,26,07,18,10.90
2010,06,26,07,19,10.90
2010,06,26,07,20,11.00
2010,06,26,07,21,11.00
2010,06,26,07,22,11.10
2010,06,26,07,23,11.10
2010,06,26,07,24,11.20
2010,06,26,07,25,11.20
2010,06,26,07,26,11.30
2010,06,26,07,27,11.30
2010,06,26,07,28,11.30
2010,06,26,07,29,11.40
2010,06,26,07,30,11.40
2010,06,26,07,31,11.40
2010,06,26,07,32,11.40
2010,06,26,07,33,11.50
2010,06,26,07,34,11.50
2010,06,26,07,35,11.60
2010,06,26,07,36,11.60
2010,06,26,07,37,11.70
2010,06,26,07,38,11.70
2010,06,26,07,39,11.80
2010,06,26,07,40,11.80
2010,06,26,07,41,11.80
2010,06,26,07,42,11.80
2010,06,26,07,43,11.90
2010,06,26,07,44,11.90
2010,06,26,07,45,11.90
2010,06,26,07,46,11.90
2010,06,26,07,47,12.00
2010,06,26,07,48,12.00
2010,06,26,07,49,12.10
2010,06,26,07,50,12.10
2010,06,26,07,51,12.20
2010,06,26,07,52,12.20
2010,06,26,07,53,12.20
2010,06,26,07,54,12.30
2010,06,26,07,55,12.30
2010,06,26,07,56,12.30
2010,06,26,07,57,12.30
2010,06,26,07,58,12.40
2010,06,26,07,59,12.40
2010,06,26,08,00,12.40
2010,06,26,08,01,12.40
2010,06,26,08,02,12.40
2010,06,26,08,03,12.50
2010,06,26,08,04,12.60
2010,06,26,08,05,12.60
2010,06,26,08,06,12.70
2010,06,26,08,07,12.70
2010,06,26,08,08,12.70
2010,06,26,08,09,12.70
2010,06,26,08,10,12.70
2010,06,26,08,11,12.70
2010,06,26,08,12,12.70
2010,06,26,08,13,12.70
2010,06,26,08,14,12.70
2010,06,26,08,15,12.70
2010,06,26,08,16,12.80
2010,06,26,08,17,12.80
2010,06,26,08,18,12.80
2010,06,26,08,19,12.80
2010,06,26,08,20,12.80
2010,06,26,08,21,12.80
2010,06,26,08,22,12.80
2010,06,26,08,23,12.80
2010,06,26,08,24,12.90
2010,06,26,08,25,12.90
2010,06,26,08,26,12.80
2010,06,26,08,27,12.80
2010,06,26,08,28,12.80
2010,06,26,08,29,12.80
2010,06,26,08,30,12.80
2010,06,26,08,31,12.80
2010,06,26,08,32,12.80
2010,06,26,08,33,12.80
2010,06,26,08,34,12.70
2010,06,26,08,35,12.70
2010,06,26,08,36,12.70
2010,06,26,08,37,12.70
2010,06,26,08,38,12.70
2010,06,26,08,39,12.80
2010,06,26,08,40,12.80
2010,06,26,08,41,12.80
2010,06,26,08,42,12.90
2010,06,26,08,43,12.90
2010,06,26,08,44,12.90
2010,06,26,08,45,12.90
2010,06,26,08,46,12.90
2010,06,26,08,47,12.90
2010,06,26,08,48,12.90
2010,06,26,08,49,12.90
2010,06,26,08,50,12.90
2010,06,26,08,51,12.80
2010,06,26,08,52,12.80
2010,06,26,08,53,12.90
2010,06,26,08,54,12.90
2010,06,26,08,55,12.90
2010,06,26,08,56,12.90
2010,06,26,08,57,12.90
2010,06,26,08,58,12.90
2010,06,26,08,59,12.90
2010,06,26,09,00,12.90
2010,06,26,09,01,12.90
2010,06,26,09,02,12.90
2010,06,26,09,03,12.90
2010,06,26,09,04,12.90
2010,06,26,09,05,12.90
2010,06,26,09,06,12.90
2010,06,26,09,07,12.90
2010,06,26,09,08,12.90
2010,06,26,09,09,12.90
2010,06,26,09,10,12.90
2010,06,26,09,11,12.90
2010,06,26,09,12,12.90
2010,06,26,09,13,13.00
2010,06,26,09,14,13.00
2010,06,26,09,15,13.10
2010,06,26,09,16,13.10
2010,06,26,09,17,13.10
2010,06,26,09,18,13.10
2010,06,26,09,19,13.10
2010,06,26,09,20,13.20
2010,06,26,09,21,13.20
2010,06,26,09,22,13.20
2010,06,26,09,23,13.20
2010,06,26,09,24,13.20
2010,06,26,09,25,13.20
2010,06,26,09,26,13.20
2010,06,26,09,27,13.20
2010,06,26,09,28,13.20
2010,06,26,09,29,13.10
2010,06,26,09,30,13.10
2010,06,26,09,31,13.10
2010,06,26,09,32,13.10
2010,06,26,09,33,13.10
2010,06,26,09,34,13.20
2010,06,26,09,35,13.20
2010,06,26,09,36,13.20
2010,06,26,09,37,13.20
2010,06,26,09,38,13.30
2010,06,26,09,39,13.30
2010,06,26,09,40,13.30
2010,06,26,09,41,13.20
2010,06,26,09,42,13.30
2010,06,26,09,43,13.30
2010,06,26,09,44,13.30
2010,06,26,09,45,13.20
2010,06,26,09,46,13.10
2010,06,26,09,47,13.10
2010,06,26,09,48,13.10
2010,06,26,09,49,13.10
2010,06,26,09,50,13.10
2010,06,26,09,51,13.10
2010,06,26,09,52,13.10
2010,06,26,09,53,13.20
2010,06,26,09,54,13.20
2010,06,26,09,55,13.20
2010,06,26,09,56,13.30
2010,06,26,09,57,13.30
2010,06,26,09,58,13.40
2010,06,26,09,59,13.40
2010,06,26,10,00,13.40
2010,06,26,10,01,13.40
2010,06,26,10,02,13.40
2010,06,26,10,03,13.40
2010,06,26,10,04,13.30
2010,06,26,10,05,13.30
2010,06,26,10,06,13.30
2010,06,26,10,07,13.30
2010,06,26,10,08,13.30
2010,06,26,10,09,13.30
2010,06,26,10,10,13.20
2010,06,26,10,11,13.20
2010,06,26,10,12,13.20
2010,06,26,10,13,13.20
2010,06,26,10,14,13.20
2010,06,26,10,15,13.20
2010,06,26,10,16,13.10
2010,06,26,10,17,13.10
2010,06,26,10,18,13.10
2010,06,26,10,19,13.20
2010,06,26,10,20,13.10
2010,06,26,10,21,13.20
2010,06,26,10,22,13.20
2010,06,26,10,23,13.20
2010,06,26,10,24,13.20
2010,06,26,10,25,13.20
2010,06,26,10,26,13.30
2010,06,26,10,27,13.30
2010,06,26,10,28,13.30
2010,06,26,10,29,13.40
2010,06,26,10,30,13.40
2010,06,26,10,31,13.50
2010,06,26,10,32,13.60
2010,06,26,10,33,13.70
2010,06,26,10,34,13.80
2010,06,26,10,35,13.90
2010,06,26,10,36,14.00
2010,06,26,10,37,14.00
2010,06,26,10,38,14.00
2010,06,26,10,39,13.90
2010,06,26,10,40,13.90
2010,06,26,10,41,13.80
2010,06,26,10,42,13.60
2010,06,26,10,43,13.40
2010,06,26,10,44,13.30
2010,06,26,10,45,13.30
2010,06,26,10,46,13.30
2010,06,26,10,47,13.20
2010,06,26,10,48,13.20
2010,06,26,10,49,13.20
2010,06,26,10,50,13.20
2010,06,26,10,51,13.20
2010,06,26,10,52,13.20
2010,06,26,10,53,13.20
2010,06,26,10,54,13.30
2010,06,26,10,55,13.30
2010,06,26,10,56,13.40
2010,06,26,10,57,13.40
2010,06,26,10,58,13.50
2010,06,26,10,59,13.50
2010,06,26,11,00,13.60
2010,06,26,11,01,13.70
2010,06,26,11,02,13.70
2010,06,26,11,03,13.70
2010,06,26,11,04,13.80
2010,06,26,11,05,13.80
2010,06,26,11,06,13.70
2010,06,26,11,07,13.60
2010,06,26,11,08,13.60
2010,06,26,11,09,13.50
2010,06,26,11,10,13.40
2010,06,26,11,11,13.30
2010,06,26,11,12,13.30
2010,06,26,11,13,13.30
2010,06,26,11,14,13.30
2010,06,26,11,15,13.30
2010,06,26,11,16,13.40
2010,06,26,11,17,13.50
2010,06,26,11,18,13.60
2010,06,26,11,19,13.60
2010,06,26,11,20,13.60
2010,06,26,11,21,13.60
2010,06,26,11,22,13.60
2010,06,26,11,23,13.60
2010,06,26,11,24,13.70
2010,06,26,11,25,13.70
2010,06,26,11,26,13.80
2010,06,26,11,27,13.90
2010,06,26,11,28,14.00
2010,06,26,11,29,14.10
2010,06,26,11,30,14.20
2010,06,26,11,31,14.20
2010,06,26,11,32,14.20
2010,06,26,11,33,14.30
2010,06,26,11,34,14.30
2010,06,26,11,35,14.40
2010,06,26,11,36,14.40
2010,06,26,11,37,14.40
2010,06,26,11,38,14.50
2010,06,26,11,39,14.50
2010,06,26,11,40,14.50
2010,06,26,11,41,14.50
2010,06,26,11,42,14.60
2010,06,26,11,43,14.50
2010,06,26,11,44,14.40
2010,06,26,11,45,14.30
2010,06,26,11,46,14.30
2010,06,26,11,47,14.40
2010,06,26,11,48,14.50
2010,06,26,11,49,14.50
2010,06,26,11,50,14.50
2010,06,26,11,51,14.60
2010,06,26,11,52,14.60
2010,06,26,11,53,14.60
2010,06,26,11,54,14.70
2010,06,26,11,55,14.70
2010,06,26,11,56,14.60
2010,06,26,11,57,14.50
2010,06,26,11,58,14.50
2010,06,26,11,59,14.60
2010,06,26,12,00,14.70
2010,06,26,12,01,14.80
2010,06,26,12,02,14.80
2010,06,26,12,03,14.80
2010,06,26,12,04,14.70
2010,06,26,12,05,14.70
2010,06,26,12,06,14.70
2010,06,26,12,07,14.80
2010,06,26,12,08,14.80
2010,06,26,12,09,14.80
2010,06,26,12,10,14.90
2010,06,26,12,11,15.00
2010,06,26,12,12,15.00
2010,06,26,12,13,15.00
2010,06,26,12,14,15.00
2010,06,26,12,15,15.00
2010,06,26,12,16,15.00
2010,06,26,12,17,14.90
2010,06,26,12,18,14.80
2010,06,26,12,19,14.80
2010,06,26,12,20,14.90
2010,06,26,12,21,14.90
2010,06,26,12,22,14.90
2010,06,26,12,23,14.80
2010,06,26,12,24,14.90
2010,06,26,12,25,15.00
2010,06,26,12,26,14.90
2010,06,26,12,27,14.80
2010,06,26,12,28,14.70
2010,06,26,12,29,14.70
2010,06,26,12,30,14.70
2010,06,26,12,31,14.70
2010,06,26,12,32,14.70
2010,06,26,12,33,14.60
2010,06,26,12,34,14.60
2010,06,26,12,35,14.70
2010,06,26,12,36,14.70
2010,06,26,12,37,14.70
2010,06,26,12,38,14.70
2010,06,26,12,39,14.70
2010,06,26,12,40,14.70
2010,06,26,12,41,14.80
2010,06,26,12,42,15.00
2010,06,26,12,43,15.10
2010,06,26,12,44,15.30
2010,06,26,12,45,15.40
2010,06,26,12,46,15.30
2010,06,26,12,47,15.20
2010,06,26,12,48,15.10
2010,06,26,12,49,15.10
2010,06,26,12,50,15.20
2010,06,26,12,51,15.40
2010,06,26,12,52,15.50
2010,06,26,12,53,15.60
2010,06,26,12,54,15.70
2010,06,26,12,55,15.80
2010,06,26,12,56,15.90
2010,06,26,12,57,15.90
2010,06,26,12,58,16.00
2010,06,26,12,59,16.10
2010,06,26,13,00,16.10
2010,06,26,13,01,16.00
2010,06,26,13,02,16.00
2010,06,26,13,03,15.80
2010,06,26,13,04,15.70
2010,06,26,13,05,15.70
2010,06,26,13,06,15.60
2010,06,26,13,07,15.60
2010,06,26,13,08,15.60
2010,06,26,13,09,15.70
2010,06,26,13,10,15.80
2010,06,26,13,11,15.80
2010,06,26,13,12,15.70
2010,06,26,13,13,15.80
2010,06,26,13,14,15.90
2010,06,26,13,15,16.00
2010,06,26,13,16,16.10
2010,06,26,13,17,16.20
2010,06,26,13,18,16.20
2010,06,26,13,19,16.30
2010,06,26,13,20,16.20
2010,06,26,13,21,16.10
2010,06,26,13,22,16.10
2010,06,26,13,23,16.10
2010,06,26,13,24,16.00
2010,06,26,13,25,16.00
2010,06,26,13,26,16.10
2010,06,26,13,27,16.10
2010,06,26,13,28,16.20
2010,06,26,13,29,16.10
2010,06,26,13,30,16.10
2010,06,26,13,31,16.10
2010,06,26,13,32,16.10
2010,06,26,13,33,16.10
2010,06,26,13,34,16.20
2010,06,26,13,35,16.10
2010,06,26,13,36,16.20
2010,06,26,13,37,16.20
2010,06,26,13,38,16.10
2010,06,26,13,39,16.00
2010,06,26,13,40,15.90
2010,06,26,13,41,15.90
2010,06,26,13,42,15.90
2010,06,26,13,43,15.90
2010,06,26,13,44,15.90
2010,06,26,13,45,16.00
2010,06,26,13,46,16.10
2010,06,26,13,47,16.20
2010,06,26,13,48,16.20
2010,06,26,13,49,16.10
2010,06,26,13,50,16.20
2010,06,26,13,51,16.20
2010,06,26,13,52,16.10
2010,06,26,13,53,16.20
2010,06,26,13,54,16.20
2010,06,26,13,55,16.20
2010,06,26,13,56,16.30
2010,06,26,13,57,16.20
2010,06,26,13,58,16.20
2010,06,26,13,59,16.30
2010,06,26,14,00,16.20
2010,06,26,14,01,16.20
2010,06,26,14,02,16.10
2010,06,26,14,03,16.10
2010,06,26,14,04,16.00
2010,06,26,14,05,16.00
2010,06,26,14,06,16.00
2010,06,26,14,07,16.10
2010,06,26,14,08,16.20
2010,06,26,14,09,16.30
2010,06,26,14,10,16.20
2010,06,26,14,11,16.10
2010,06,26,14,12,16.10
2010,06,26,14,13,16.10
2010,06,26,14,14,16.20
2010,06,26,14,15,16.10
2010,06,26,14,16,16.10
2010,06,26,14,17,16.10
2010,06,26,14,18,16.20
2010,06,26,14,19,16.20
2010,06,26,14,20,16.30
2010,06,26,14,21,16.30
2010,06,26,14,22,16.30
2010,06,26,14,23,16.20
2010,06,26,14,24,16.10
2010,06,26,14,25,16.00
2010,06,26,14,26,16.00
2010,06,26,14,27,15.90
2010,06,26,14,28,15.80
2010,06,26,14,29,15.80
2010,06,26,14,30,15.80
2010,06,26,14,31,15.70
2010,06,26,14,32,15.80
2010,06,26,14,33,15.80
2010,06,26,14,34,16.00
2010,06,26,14,35,16.00
2010,06,26,14,36,16.00
2010,06,26,14,37,16.00
2010,06,26,14,38,16.10
2010,06,26,14,39,16.10
2010,06,26,14,40,16.10
2010,06,26,14,41,16.10
2010,06,26,14,42,16.20
2010,06,26,14,43,16.20
2010,06,26,14,44,16.10
2010,06,26,14,45,16.00
2010,06,26,14,46,15.90
2010,06,26,14,47,16.00
2010,06,26,14,48,16.00
2010,06,26,14,49,16.10
2010,06,26,14,50,16.10
2010,06,26,14,51,16.20
2010,06,26,14,52,16.20
2010,06,26,14,53,16.20
2010,06,26,14,54,16.20
2010,06,26,14,55,16.20
2010,06,26,14,56,16.10
2010,06,26,14,57,16.00
2010,06,26,14,58,15.90
2010,06,26,14,59,15.70
2010,06,26,15,00,15.70
2010,06,26,15,01,15.70
2010,06,26,15,02,15.70
2010,06,26,15,03,15.70
2010,06,26,15,04,15.70
2010,06,26,15,05,15.70
2010,06,26,15,06,15.80
2010,06,26,15,07,15.80
2010,06,26,15,08,15.80
2010,06,26,15,09,16.00
2010,06,26,15,10,16.10
2010,06,26,15,11,16.20
2010,06,26,15,12,16.20
2010,06,26,15,13,16.30
2010,06,26,15,14,16.30
2010,06,26,15,15,16.30
2010,06,26,15,16,16.20
2010,06,26,15,17,16.20
2010,06,26,15,18,16.10
2010,06,26,15,19,16.00
2010,06,26,15,20,15.90
2010,06,26,15,21,15.90
2010,06,26,15,22,15.90
2010,06,26,15,23,16.10
2010,06,26,15,24,16.20
2010,06,26,15,25,16.30
2010,06,26,15,26,16.30
2010,06,26,15,27,16.40
2010,06,26,15,28,16.40
2010,06,26,15,29,16.40
2010,06,26,15,30,16.20
2010,06,26,15,31,16.10
2010,06,26,15,32,15.90
2010,06,26,15,33,15.80
2010,06,26,15,34,15.80
2010,06,26,15,35,15.80
2010,06,26,15,36,15.90
2010,06,26,15,37,15.90
2010,06,26,15,38,15.90
2010,06,26,15,39,15.90
2010,06,26,15,40,15.90
2010,06,26,15,41,15.90
2010,06,26,15,42,15.90
2010,06,26,15,43,16.00
2010,06,26,15,44,16.10
2010,06,26,15,45,16.20
2010,06,26,15,46,16.30
2010,06,26,15,47,16.30
2010,06,26,15,48,16.40
2010,06,26,15,49,16.40
2010,06,26,15,50,16.50
2010,06,26,15,51,16.60
2010,06,26,15,52,16.70
2010,06,26,15,53,16.80
2010,06,26,15,54,16.90
2010,06,26,15,55,16.90
2010,06,26,15,56,16.80
2010,06,26,15,57,16.80
2010,06,26,15,58,16.80
2010,06,26,15,59,16.60
2010,06,26,16,00,16.50
2010,06,26,16,01,16.30
2010,06,26,16,02,16.20
2010,06,26,16,03,16.10
2010,06,26,16,04,16.10
2010,06,26,16,05,16.10
2010,06,26,16,06,16.00
2010,06,26,16,07,15.90
2010,06,26,16,08,15.80
2010,06,26,16,09,15.70
2010,06,26,16,10,15.60
2010,06,26,16,11,15.50
2010,06,26,16,12,15.40
2010,06,26,16,13,15.30
2010,06,26,16,14,15.30
2010,06,26,16,15,15.40
2010,06,26,16,16,15.40
2010,06,26,16,17,15.50
2010,06,26,16,18,15.60
2010,06,26,16,19,15.60
2010,06,26,16,20,15.70
2010,06,26,16,21,15.70
2010,06,26,16,22,15.70
2010,06,26,16,23,15.70
2010,06,26,16,24,15.80
2010,06,26,16,25,15.80
2010,06,26,16,26,15.80
2010,06,26,16,27,15.90
2010,06,26,16,28,15.80
2010,06,26,16,29,15.80
2010,06,26,16,30,15.80
2010,06,26,16,31,15.90
2010,06,26,16,32,16.00
2010,06,26,16,33,16.10
2010,06,26,16,34,16.10
2010,06,26,16,35,16.10
2010,06,26,16,36,16.10
2010,06,26,16,37,16.10
2010,06,26,16,38,16.20
2010,06,26,16,39,16.20
2010,06,26,16,40,16.30
2010,06,26,16,41,16.40
2010,06,26,16,42,16.40
2010,06,26,16,43,16.50
2010,06,26,16,44,16.60
2010,06,26,16,45,16.60
2010,06,26,16,46,16.60
2010,06,26,16,47,16.60
2010,06,26,16,48,16.50
2010,06,26,16,49,16.50
2010,06,26,16,50,16.50
2010,06,26,16,51,16.50
2010,06,26,16,52,16.50
2010,06,26,16,53,16.60
2010,06,26,16,54,16.70
2010,06,26,16,55,16.80
2010,06,26,16,56,16.70
2010,06,26,16,57,16.70
2010,06,26,16,58,16.80
2010,06,26,16,59,16.90
2010,06,26,17,00,16.90
2010,06,26,17,01,17.00
2010,06,26,17,02,16.90
2010,06,26,17,03,16.80
2010,06,26,17,04,16.60
2010,06,26,17,05,16.50
2010,06,26,17,06,16.40
2010,06,26,17,07,16.50
2010,06,26,17,08,16.40
2010,06,26,17,09,16.30
2010,06,26,17,10,16.30
2010,06,26,17,11,16.30
2010,06,26,17,12,16.30
2010,06,26,17,13,16.20
2010,06,26,17,14,16.20
2010,06,26,17,15,16.30
2010,06,26,17,16,16.30
2010,06,26,17,17,16.30
2010,06,26,17,18,16.40
2010,06,26,17,19,16.40
2010,06,26,17,20,16.40
2010,06,26,17,21,16.40
2010,06,26,17,22,16.30
2010,06,26,17,23,16.20
2010,06,26,17,24,16.20
2010,06,26,17,25,16.10
2010,06,26,17,26,16.10
2010,06,26,17,27,16.10
2010,06,26,17,28,16.10
2010,06,26,17,29,16.00
2010,06,26,17,30,16.00
2010,06,26,17,31,16.00
2010,06,26,17,32,16.00
2010,06,26,17,33,16.10
2010,06,26,17,34,16.20
2010,06,26,17,35,16.20
2010,06,26,17,36,16.20
2010,06,26,17,37,16.20